Regional Weather Roundup
Issued by NWS

Home | Current Version | Previous Version | Text Only | Print | Product List | Glossary On
Versions: 1 2 3 4 5 6 7 8 9 10 11 12 13 14 15 16 17 18 19 20 21 22 23 24 25 26 27 28 29 30 31 32 33 34 35 36 37 38 39 40 41 42 43 44 45 46 47 48 49 50
000
ASCA44 KEWX 022320
RWRMX

LATIN AMERICA AND CARIBBEAN REGIONAL WEATHER ROUNDUP
NATIONAL WEATHER SERVICE AUSTIN/SAN ANTONIO TX
600 PM CDT WED SEP 02 2015

NOTE: "FAIR" INDICATED FEW OR NO CLOUDS BELOW 12,000 FEET WITH NO
SIGNIFICANT WEATHER AND/OR OBSTRUCTIONS TO VISIBILITY.

BAJA CALIFORNIA

CITY           SKY/WX    TMP DP  RH WIND       PRES   REMARKS
LORETO           N/A    N/A N/A N/A MISG        N/A
LA PAZ         CLOUDY    90  70  51 SW12      29.85S HX  95
MEXICALI       PTSUNNY   99  54  22 S12       29.74F HX  96
S.J. DEL CABO  CLOUDY    90  70  51 E14       29.84F HX  95
TIJUANA        MOSUNNY   73  55  53 W10       29.94F

NORTHWESTERN MEXICO

CITY           SKY/WX    TMP DP  RH WIND       PRES   REMARKS
CULIACAN       PTSUNNY   93  82  70 SW12      29.84R HX 117
DURANGO        PTSUNNY   86  39  19 E9        30.13F
GUAYMAS        CLOUDY    91  82  75 SW7       29.76F HX 114
HERMOSILLO     CLOUDY    93  75  55 SE7       29.84R HX 104
CD. JUAREZ     MOSUNNY   99  61  28 E7        29.92F HX  99
LOS MOCHIS     CLOUDY    90  73  58 SW14      29.83F HX  98
OBREGON        CLOUDY    95  73  49 SW7       29.77F HX 105

NORTHEASTERN MEXICO

CITY           SKY/WX    TMP DP  RH WIND       PRES   REMARKS
CHIHUAHUA      PTSUNNY   93  43  17 E6        30.04F
MATAMOROS      PTSUNNY   91  79  66 E6        29.91S HX 107
MONCLOVA       MOSUNNY   90  66  45 NE9       29.89  HX  92
MONTERREY      MOSUNNY   93  61  33 E9        29.87F HX  93
NUEVO LAREDO   MOSUNNY  104  66  29 CALM      29.85F HX 109
PIEDRAS NEGRAS MOSUNNY   95  68  41 E7        29.89F HX  99
REYNOSA        MOSUNNY   90  70  51 E12       29.85F HX  95
SALTILLO       MOSUNNY   82  68  61 N17       30.09F
TORREON        MOSUNNY   97  48  19 S12       29.97F HX  93
CD. VICTORIA   SUNNY     95  61  31 SE7       29.84F HX  95

WESTERN MEXICO

CITY           SKY/WX    TMP DP  RH WIND       PRES   REMARKS
AGUASCALIENTES RAIN      70  55  60 N12       30.19S
COLIMA         PTSUNNY   81  72  74 W7        29.98F
DEL BAJIO      PTSUNNY   77  55  47 NW8       30.21S
GUADALAJARA    PTSUNNY   77  57  50 NW9       30.11F
MANZANILLO       N/A    N/A N/A N/A MISG        N/A
MAZATLAN       PTSUNNY   86  79  79 SW12      29.82F HX  99
P. VALLARTA    PTSUNNY   88  79  74 SW9       29.84S HX 102
URUAPAN        CLOUDY    68  66  94 CALM      30.17S
ZACATECAS      MOSUNNY   77  52  41 S9        30.21F

CENTRAL MEXICO

CITY           SKY/WX    TMP DP  RH WIND       PRES   REMARKS
CUERNAVACA     PTSUNNY   77  64  65 SW5       30.06F
MEXICO CITY    PTSUNNY   73  52  46 S8        30.23F
MORELIA        PTSUNNY   75  61  60 SW10      30.16F
POZA RICA      MOSUNNY   90  75  62 E12       29.87S HX 100
PUEBLA         MOSUNNY   73  54  49 SE8       30.23F
QUERETARO      PTSUNNY   75  55  50 N6        30.21F
S. LUIS POTOSI PTSUNNY   79  50  36 E14       30.15F
TAMPICO        SUNNY     86  73  66 E12       29.83F HX  93
TOLUCA         TSTM      59  57  94 SW6       30.34R

SOUTHERN MEXICO

CITY           SKY/WX    TMP DP  RH WIND       PRES   REMARKS
ACAPULCO       PTSUNNY   86  77  74 S5        29.84S HX  97
B. DE HUATULCO CLOUDY    81  70  69 CALM      29.92F
OAXACA         CLOUDY    75  57  53 E6        30.12F
P. ESCONDIDO   PTSUNNY   84  77  79 E5        29.94F HX  94
VERACRUZ       MOSUNNY   86  77  74 E7        29.82F HX  97
ZIHUATANEJO    TSTM      90  77  66 N12       29.86R HX 102

YUCATAN PENINSULA

CITY           SKY/WX    TMP DP  RH WIND       PRES   REMARKS
CAMPECHE       CLOUDY    81  75  83 CALM      29.87R
CANCUN         PTSUNNY   88  77  70 NE8       29.94  HX 100
CHETUMAL       PTSUNNY   88  77  70 NE12      29.88S HX 100
CD. DEL CARMEN PTSUNNY   88  77  70 NE20      29.84S HX 100
COZUMEL        MOSUNNY   84  75  74 E9        29.93S HX  92
MERIDA         PTSUNNY   79  75  89 NW7       29.90R
MINATITLAN     MOSUNNY   88  68  51 CALM      29.76F HX  91
TAPACHULA      PTSUNNY   81  75  83 CALM      29.84F
TUX. GUTIERREZ PTSUNNY   84  70  61 S3        29.88F
VILLAHERMOSA   MOSUNNY   93  73  52 N9        29.83S HX 102

CENTRAL AMERICA

CITY           SKY/WX    TMP DP  RH WIND       PRES   REMARKS
BELIZE CITY    MOSUNNY   88  79  74 E10       29.86F HX 102
MANAGUA        PTCLDY    84  72  65 SE9       29.83S

CARIBBEAN

CITY           SKY/WX    TMP DP  RH WIND       PRES   REMARKS
ARUBA          PTCLDY    84  77  79 E22       29.83S HX  94
KINGSTON       PTCLDY    86  77  74 SE17      29.89S HX  97
NASSAU         PTCLDY    86  75  70 NE6       30.00F HX  95
SAN JUAN       PTCLDY    88  73  62 SW3       29.97R HX  96
SANTO DOMINGO  MOCLDY    79  73  83 NE7       29.94R
ST. CROIX      PTCLDY    82  75  78 E7        29.99R
ST. KITTS      PTCLDY    82  77  83 NE6       29.97S HX  91
ST. MAARTEN    PTCLDY    84  75  74 NE5       29.97S HX  92
ST. THOMAS     CLEAR     86  77  74 E6        29.98R HX  97

$$




USA.gov is the U.S. government's official web portal to all federal, state and local government web resources and services.